Starlink 33643

operational
NORAD ID: 63381 Int'l Des: 2025-063 Owner: SPXS Country: US Constellation: starlink
LEOCIRCULAR

Starlink 33643について

説明を読み込み中...

リアルタイム位置

3D地球を読み込み中...

次回通過

高度履歴

Altitude vs Time

uPlot chart will show altitude changes over time

軌道要素

1 63381U 25063U 25304.25735262 .00041393 00000-0 14019-2 0 9990
2 63381 53.1596 293.6005 0001472 94.8060 265.3109 15.30199920 34943
Epoch: Oct 31, 2025 • Age: 29 hours

現在のステータス

高度 480.5 km
速度 7.63 km/s
衛星直下点 53.22°N, 170.88°E
打ち上げ日 Mar 26, 2025
運用期間 0.5 years
タイプ internet

技術仕様

分類 Payload
質量 575.00 kg
乾燥質量 530.00 kg
総質量 575.00 kg
長さ 0.30 m
直径 4.10 m
スパン 29.00 m
形状 Box + pan
製造者 SPXS
バスタイプ Starlink V2MO
フェーズステータス In Orbit
所有者/国 SPXS/US

大規模コンステレーション

Loading constellations...